Location: Estes Par
(40.3770°N, 105.5210°W)
Time: 00:16:53
(UTC-06:00)

Vanguard 2 - Visible Passes

Search period start: 23 July 2018 00:00
Search period end: 02 August 2018 00:00
Orbit: 553 x 2939 km, 32.9° (Epoch: 22 July)

Date Brightness Start Highest point End Pass type
(mag) Time Alt. Az. Time Alt. Az. Time Alt. Az.
23 Jul 10.5 00:22:31 10° W 00:37:41 36° SW 00:39:42 35° SSW visible
23 Jul 10.5 22:28:07 10° W 22:44:33 55° SSW 22:54:29 29° SE visible
24 Jul 10.8 00:41:25 10° W 00:55:15 29° SW 00:55:50 29° SW visible
24 Jul 10.4 20:35:28 10° W 20:50:27 65° S 21:08:02 10° ESE visible
24 Jul 10.5 22:46:27 10° W 23:02:30 48° SSW 23:10:40 32° SSE visible
25 Jul 11.1 01:00:48 10° W 01:12:02 23° SW 01:12:02 23° SW visible
25 Jul 10.5 20:53:35 10° W 21:08:36 62° SSW 21:25:33 11° ESE visible
25 Jul 10.6 23:04:53 10° W 23:20:20 42° SSW 23:26:55 32° S visible
26 Jul 11.3 01:21:08 10° W 01:28:16 16° SW 01:28:16 16° SW visible
26 Jul 10.5 21:11:44 10° W 21:26:43 58° SSW 21:41:50 15° SE visible
26 Jul 10.8 23:23:32 10° W 23:38:05 35° SW 23:43:12 30° S visible
27 Jul 10.6 21:29:57 10° W 21:44:46 52° SSW 21:58:11 19° SE visible
27 Jul 10.9 23:42:30 10° W 23:55:45 28° SW 23:59:32 26° SSW visible
28 Jul 10.7 21:48:15 10° W 22:02:44 45° SSW 22:14:34 21° SSE visible
29 Jul 11.2 00:02:03 10° W 00:13:21 21° SW 00:15:57 20° SSW visible
29 Jul 10.9 22:06:43 10° W 22:20:39 38° SSW 22:31:02 22° SSE visible
30 Jul 11.4 00:22:48 10° WSW 00:30:55 15° SW 00:32:24 15° SW visible
30 Jul 11.0 22:25:25 10° W 22:38:29 32° SW 22:47:33 21° S visible
31 Jul 10.6 20:32:34 10° W 20:45:18 48° SSW 21:01:46 10° SE visible
31 Jul 11.2 22:44:31 10° W 22:56:16 25° SW 23:04:08 18° S visible
01 Aug 10.8 20:50:54 10° W 21:03:19 41° SSW 21:19:03 10° SE visible
01 Aug 11.4 23:04:22 10° WSW 23:14:02 18° SW 23:20:47 14° SSW visible
